Regional Weather Roundup
Issued by NWS

Home | Current Version | Previous Version | Text Only | Print | Product List | Glossary Off
Versions: 1 2 3 4 5 6 7 8 9 10 11 12 13 14 15 16 17 18 19 20 21 22 23 24 25 26 27 28 29 30 31 32 33 34 35 36 37 38 39 40 41 42 43 44 45 46 47 48 49 50

866
ASUS44 KLIX 280407
RWRLA
LOUISIANA WEATHER ROUNDUP
NATIONAL WEATHER SERVICE NEW ORLEANS LA
1100 PM CDT FRI MAR 27 2015

NOTE: "FAIR" INDICATES FEW OR NO CLOUDS BELOW 12,000 FEET WITH NO
      SIGNIFICANT WEATHER AND/OR OBSTRUCTIONS TO VISIBILITY.
      SKY/WX - SKY CONDITION AND SIGNIFICANT WEATHER.
      TMP - AIR TEMPERATURE.    DP   - DEWPOINT TEMPERATURE.
      RH  - RELATIVE HUMIDITY.  PRES - PRESSURE.
      HX  - HEAT INDEX.         WCI  - WIND CHILL INDEX.

*  THESE STATIONS ARE NOT NWS OR FAA STATIONS AND ARE NOT UNDER
   NWS QUALITY CONTROL.

LAZ040-048-061>063-065-066-069-280500-
SOUTHEAST LOUISIANA

CITY           SKY/WX    TMP DP  RH WIND       PRES   REMARKS
N.O. AUDUBON     N/A     61 N/A N/A MISG        N/A
N.O. INTL ARPT PTCLDY    60  40  47 NE17      30.13R
N.O. LAKEFRONT CLEAR     62  41  46 NE23      30.14R
SLIDELL        CLEAR     52  42  69 CALM      30.14R
BATON ROUGE    CLEAR     55  42  61 NE5       30.15R
BOOTHVILLE     CLEAR     59  49  69 N6        30.13R
BELLE CHASSE   PTCLDY    56  41  57 N7        30.13R
BOGALUSA*        N/A     52  38  58 N6        30.16R
GALLIANO*      CLEAR     61  55  78 W5        30.13R
NEW ROADS*     FAIR      55  40  58 N3        30.16R
GONZALES*      FAIR      58  41  54 N6        30.14R
HAMMOND*       CLEAR     54  37  54 CALM      30.16R
HOUMA*         CLEAR     57  54  89 SW5       30.12S
PORT FOURCHON* CLEAR     64  54  68 W15G21    30.16R

$$

LAZ041-044-053-054-280500-
SOUTHWEST LOUISIANA

CITY           SKY/WX    TMP DP  RH WIND       PRES   REMARKS
LAKE CHARLES   CLEAR     56  45  66 CALM      30.14R
LAFAYETTE      CLEAR     62  37  39 N9        30.13R
PATTERSON      CLEAR     57  52  82 W5        30.14R
SALT POINT       N/A     63  57  81 W7        30.12R
NEW IBERIA     CLEAR     59  43  55 NW7       30.14R
CHENAULT AIRPK CLEAR     59  42  53 CALM      30.15R

$$

LAZ027-028-280500-
CENTRAL LOUISIANA

CITY           SKY/WX    TMP DP  RH WIND       PRES   REMARKS
FORT POLK      CLEAR     51  42  71 N6        30.16R
ALEXANDRIA INT CLEAR     55  41  59 E3        30.16R
ALEXANDRIA     PTCLDY    50  42  74 CALM      30.17R

$$

LAZ001-002-280500-
NORTHWEST LOUISIANA

CITY           SKY/WX    TMP DP  RH WIND       PRES   REMARKS
SHREVEPORT     PTCLDY    55  34  45 N5        30.17R
BARKSDALE AFB  PTCLDY    51  33  50 N3        30.17R
DTN SHREVEPORT PTCLDY    53  33  46 N3        30.17R

$$

LAZ014-016-280500-
NORTHEAST LOUISIANA

CITY           SKY/WX    TMP DP  RH WIND       PRES   REMARKS
MONROE         PTCLDY    47  40  76 E5        30.19R
TALLULAH       LGT RAIN  48  38  68 NE7       30.18R

$$




USA.gov is the U.S. government's official web portal to all federal, state and local government web resources and services.